Tracking 22879 objects as of 22-Apr-2021
HD Live streaming from Space Station
objects crossing your sky now

OBJECT F

Track OBJECT F now!
10-day predictions


NORAD ID: 43854
Int'l Code: 2018-104F
Perigee: 487.3 km
Apogee: 511.3 km
Inclination: 85.0 °
Period: 94.5 minutes
Semi major axis: 6870 km
RCS: Unknown
Launch date: December 16, 2018
Source: United States (US)
Launch site: Rocket Lab Launch Complex (RLLC)
aabbcc
Your satellite tracking list
Your tracking list is empty




NASA's NSSDC Master Catalog

Two Line Element Set (TLE):
1 43854U 18104F   21111.85724476  .00002878  00000-0  11488-3 0  9997
2 43854  85.0282 329.9183 0017456   6.5466 353.6002 15.24538380130480
Source of the keplerian elements: Caltech